| time (UTC) | temp C | wind direction | speed KPH | gust KPH | rain 1hr cm | rain 24hr cm | rain mn cm | humidity % | barometer mb |
| 20260906113649 | 22 | 152 | 1.6 | 1.6 | 0.00 | 0.03 | 0.03 | 95 | 1011.6 |
| 20260906113144 | 22 | 146 | 0.0 | 1.6 | 0.00 | 0.03 | 0.03 | 95 | 1011.8 |
| 20260906112643 | 22 | 166 | 1.6 | 1.6 | 0.00 | 0.03 | 0.03 | 95 | 1011.8 |
| 20260906112140 | 22 | 57 | 0.0 | 1.6 | 0.00 | 0.03 | 0.03 | 95 | 1011.5 |
| 20260906111639 | 22 | 157 | 0.0 | 1.6 | 0.00 | 0.03 | 0.03 | 95 | 1011.4 |
| 20260906111134 | 22 | 164 | 1.6 | 1.6 | 0.00 | 0.03 | 0.03 | 95 | 1011.4 |
| 20260906110629 | 22 | 176 | 1.6 | 1.6 | 0.00 | 0.03 | 0.03 | 95 | 1011.3 |
| 20260906110124 | 22 | 117 | 1.6 | 1.6 | 0.00 | 0.03 | 0.03 | 95 | 1011.3 |
| 20260906105618 | 22 | 176 | 1.6 | 1.6 | 0.00 | 0.03 | 0.03 | 95 | 1011.0 |
| 20260906105115 | 22 | 173 | 0.0 | 0.0 | 0.00 | 0.03 | 0.03 | 95 | 1011.2 |
| 20260906104614 | 22 | 163 | 0.0 | 0.0 | 0.00 | 0.03 | 0.03 | 95 | 1011.1 |
| 20260906104108 | 22 | 116 | 1.6 | 3.2 | 0.00 | 0.03 | 0.03 | 95 | 1011.1 |
| 20260906103606 | 22 | 169 | 1.6 | 1.6 | 0.00 | 0.03 | 0.03 | 95 | 1011.1 |
| 20260906103102 | 22 | 113 | 1.6 | 1.6 | 0.00 | 0.03 | 0.03 | 95 | 1010.9 |
| 20260906102602 | 22 | 147 | 1.6 | 1.6 | 0.00 | 0.03 | 0.03 | 95 | 1011.1 |
| 20260906102056 | 22 | 177 | 0.0 | 0.0 | 0.00 | 0.03 | 0.03 | 95 | 1011.0 |
| 20260906101551 | 22 | 154 | 0.0 | 1.6 | 0.00 | 0.03 | 0.03 | 95 | 1011.1 |
| 20260906101045 | 22 | 179 | 0.0 | 0.0 | 0.00 | 0.03 | 0.03 | 95 | 1010.9 |
| 20260906100541 | 22 | 146 | 1.6 | 1.6 | 0.00 | 0.03 | 0.03 | 95 | 1010.6 |
| 20260906100042 | 22 | 120 | 1.6 | 3.2 | 0.00 | 0.03 | 0.03 | 95 | 1010.9 |
| 20260906095536 | 22 | 177 | 0.0 | 0.0 | 0.00 | 0.03 | 0.03 | 95 | 1010.5 |
| 20260906095032 | 22 | 158 | 0.0 | 0.0 | 0.00 | 0.03 | 0.03 | 95 | 1010.6 |
| 20260906094530 | 22 | 148 | 1.6 | 1.6 | 0.00 | 0.03 | 0.03 | 95 | 1010.5 |
| 20260906094027 | 22 | 115 | 3.2 | 3.2 | 0.00 | 0.03 | 0.03 | 95 | 1010.5 |
| 20260906093522 | 22 | 146 | 1.6 | 1.6 | 0.00 | 0.03 | 0.03 | 95 | 1010.3 |
| 20260906093022 | 22 | 111 | 1.6 | 1.6 | 0.00 | 0.03 | 0.03 | 95 | 1010.2 |
| 20260906092517 | 22 | 170 | 0.0 | 0.0 | 0.00 | 0.03 | 0.03 | 95 | 1010.6 |
| 20260906092012 | 22 | 148 | 1.6 | 1.6 | 0.00 | 0.03 | 0.03 | 95 | 1010.2 |
| 20260906091508 | 22 | 164 | 0.0 | 0.0 | 0.00 | 0.03 | 0.03 | 95 | 1010.2 |
| 20260906091005 | 22 | 177 | 0.0 | 0.0 | 0.00 | 0.03 | 0.03 | 95 | 1010.1 |
| 20260906090504 | 22 | 194 | 0.0 | 0.0 | 0.00 | 0.03 | 0.03 | 95 | 1010.4 |
| 20260906085959 | 22 | 191 | 0.0 | 0.0 | 0.00 | 0.03 | 0.03 | 95 | 1010.4 |
| 20260906085458 | 22 | 173 | 0.0 | 0.0 | 0.00 | 0.03 | 0.03 | 95 | 1009.9 |
| 20260906084957 | 22 | 187 | 0.0 | 0.0 | 0.00 | 0.03 | 0.03 | 95 | 1009.9 |
| 20260906084452 | 22 | 203 | 0.0 | 0.0 | 0.00 | 0.03 | 0.03 | 95 | 1010.2 |
| 20260906083951 | 22 | 203 | 0.0 | 0.0 | 0.00 | 0.03 | 0.03 | 95 | 1010.1 |
| 20260906083447 | 22 | 209 | 0.0 | 0.0 | 0.00 | 0.03 | 0.03 | 95 | 1010.1 |
| 20260906082946 | 22 | 201 | 0.0 | 0.0 | 0.00 | 0.03 | 0.03 | 95 | 1010.3 |
| 20260906082442 | 22 | 211 | 1.6 | 1.6 | 0.00 | 0.03 | 0.03 | 95 | 1010.1 |
| 20260906081937 | 22 | 225 | 1.6 | 1.6 | 0.00 | 0.03 | 0.03 | 95 | 1010.0 |
| 20260906081432 | 21 | 206 | 0.0 | 0.0 | 0.00 | 0.03 | 0.03 | 95 | 1009.7 |
| 20260906080929 | 21 | 207 | 0.0 | 0.0 | 0.00 | 0.03 | 0.03 | 95 | 1009.7 |
| 20260906080425 | 21 | 207 | 0.0 | 0.0 | 0.00 | 0.03 | 0.03 | 95 | 1009.4 |
| 20260906075925 | 21 | 207 | 0.0 | 0.0 | 0.00 | 0.03 | 0.03 | 95 | 1009.6 |
| 20260906075420 | 21 | 207 | 0.0 | 0.0 | 0.00 | 0.03 | 0.03 | 95 | 1009.4 |
| 20260906074915 | 21 | 207 | 0.0 | 0.0 | 0.00 | 0.03 | 0.03 | 95 | 1009.8 |
| 20260906074415 | 21 | 207 | 0.0 | 0.0 | 0.00 | 0.03 | 0.03 | 95 | 1009.5 |
| 20260906073914 | 21 | 207 | 0.0 | 0.0 | 0.00 | 0.03 | 0.03 | 95 | 1009.3 |
| 20260906073408 | 21 | 207 | 0.0 | 0.0 | 0.00 | 0.03 | 0.03 | 95 | 1009.4 |
| 20260906072905 | 22 | 207 | 0.0 | 0.0 | 0.00 | 0.03 | 0.03 | 95 | 1009.5 |
| 20260906072400 | 22 | 207 | 0.0 | 0.0 | 0.00 | 0.03 | 0.03 | 95 | 1009.6 |
| 20260906071856 | 22 | 205 | 0.0 | 0.0 | 0.00 | 0.03 | 0.03 | 95 | 1009.5 |
| 20260906071351 | 22 | 205 | 0.0 | 0.0 | 0.00 | 0.03 | 0.03 | 95 | 1009.5 |
| 20260906070847 | 22 | 210 | 0.0 | 0.0 | 0.00 | 0.03 | 0.03 | 95 | 1009.5 |
| 20260906070343 | 22 | 205 | 0.0 | 0.0 | 0.00 | 0.03 | 0.03 | 95 | 1009.8 |
| 20260906065838 | 22 | 205 | 0.0 | 0.0 | 0.00 | 0.03 | 0.03 | 95 | 1009.5 |
| 20260906065332 | 22 | 205 | 0.0 | 0.0 | 0.00 | 0.03 | 0.03 | 95 | 1009.7 |
| 20260906064828 | 22 | 205 | 0.0 | 0.0 | 0.00 | 0.03 | 0.03 | 95 | 1009.6 |
| 20260906064324 | 22 | 205 | 0.0 | 0.0 | 0.00 | 0.03 | 0.03 | 95 | 1009.7 |
| 20260906063818 | 22 | 205 | 0.0 | 0.0 | 0.00 | 0.03 | 0.03 | 95 | 1009.6 |
| 20260906063314 | 22 | 216 | 0.0 | 0.0 | 0.00 | 0.03 | 0.03 | 95 | 1009.8 |
| 20260906062809 | 22 | 223 | 1.6 | 1.6 | 0.00 | 0.03 | 0.03 | 95 | 1009.8 |
| 20260906062308 | 22 | 209 | 0.0 | 0.0 | 0.00 | 0.03 | 0.03 | 95 | 1009.8 |
| 20260906061804 | 22 | 209 | 0.0 | 0.0 | 0.00 | 0.03 | 0.03 | 95 | 1009.9 |
| 20260906061300 | 22 | 209 | 0.0 | 0.0 | 0.00 | 0.03 | 0.03 | 95 | 1010.0 |
| 20260906060755 | 22 | 209 | 0.0 | 0.0 | 0.00 | 0.03 | 0.03 | 95 | 1009.9 |
| 20260906060253 | 22 | 209 | 0.0 | 0.0 | 0.00 | 0.03 | 0.03 | 95 | 1009.9 |
| 20260906055748 | 22 | 209 | 0.0 | 0.0 | 0.00 | 0.03 | 0.03 | 95 | 1010.1 |
| 20260906055243 | 22 | 209 | 0.0 | 0.0 | 0.00 | 0.03 | 0.03 | 95 | 1010.3 |
| 20260906054738 | 22 | 211 | 0.0 | 0.0 | 0.00 | 0.03 | 0.03 | 95 | 1010.0 |
| 20260906054233 | 22 | 205 | 0.0 | 0.0 | 0.00 | 0.03 | 0.03 | 95 | 1010.1 |
| 20260906053730 | 22 | 205 | 0.0 | 0.0 | 0.00 | 0.03 | 0.03 | 95 | 1010.4 |
| 20260906053226 | 22 | 205 | 0.0 | 0.0 | 0.00 | 0.03 | 0.03 | 95 | 1010.4 |
| 20260906052721 | 22 | 205 | 0.0 | 0.0 | 0.00 | 0.03 | 0.03 | 95 | 1010.4 |
| 20260906052217 | 22 | 206 | 0.0 | 0.0 | 0.00 | 0.03 | 0.03 | 95 | 1010.5 |
| 20260906051714 | 22 | 207 | 0.0 | 1.6 | 0.18 | 0.03 | 0.03 | 95 | 1010.5 |
| 20260906051213 | 22 | 205 | 0.0 | 0.0 | 0.18 | 0.03 | 0.03 | 95 | 1010.4 |
| 20260906050708 | 22 | 205 | 0.0 | 0.0 | 0.00 | 0.00 | 0.00 | 95 | 1010.7 |
| 20260906050203 | 22 | 205 | 0.0 | 0.0 | 0.00 | 0.00 | 0.00 | 95 | 1010.5 |
| 20260906045702 | 22 | 205 | 0.0 | 0.0 | 0.00 | 0.00 | 0.00 | 95 | 1010.4 |
| 20260906045157 | 22 | 206 | 0.0 | 0.0 | 0.00 | 0.00 | 0.00 | 95 | 1010.4 |
| 20260906044653 | 22 | 205 | 0.0 | 0.0 | 0.00 | 0.00 | 0.00 | 95 | 1010.6 |
| 20260906044148 | 22 | 166 | 0.0 | 0.0 | 0.00 | 0.00 | 0.00 | 95 | 1010.7 |
| 20260906043644 | 22 | 168 | 0.0 | 0.0 | 0.00 | 0.00 | 0.00 | 95 | 1010.8 |
| 20260906043140 | 22 | 168 | 0.0 | 0.0 | 0.00 | 0.00 | 0.00 | 95 | 1010.7 |
| 20260906042639 | 22 | 168 | 0.0 | 0.0 | 0.00 | 0.00 | 0.00 | 95 | 1010.8 |
| 20260906042133 | 22 | 168 | 0.0 | 0.0 | 0.00 | 0.00 | 0.00 | 95 | 1010.7 |
| 20260906041629 | 22 | 168 | 0.0 | 0.0 | 0.00 | 0.00 | 0.00 | 95 | 1010.8 |
| 20260906041124 | 22 | 168 | 0.0 | 0.0 | 0.00 | 0.00 | 0.00 | 95 | 1010.9 |
| 20260906040620 | 22 | 168 | 0.0 | 0.0 | 0.00 | 0.00 | 0.00 | 95 | 1010.8 |
| 20260906040115 | 22 | 168 | 0.0 | 0.0 | 0.00 | 0.13 | 0.13 | 95 | 1010.7 |
| 20260906035610 | 22 | 168 | 0.0 | 0.0 | 0.00 | 0.13 | 0.13 | 95 | 1011.0 |
| 20260906035106 | 22 | 168 | 0.0 | 0.0 | 0.00 | 0.13 | 0.13 | 95 | 1011.0 |
| 20260906034606 | 22 | 168 | 0.0 | 0.0 | 0.00 | 0.13 | 0.13 | 95 | 1011.0 |
| 20260906034101 | 22 | 168 | 0.0 | 0.0 | 0.00 | 0.13 | 0.13 | 95 | 1011.0 |
| 20260906033556 | 22 | 168 | 0.0 | 0.0 | 0.00 | 0.13 | 0.13 | 95 | 1010.9 |
| 20260906033051 | 22 | 168 | 0.0 | 0.0 | 0.00 | 0.13 | 0.13 | 95 | 1010.9 |
| 20260906032548 | 22 | 168 | 0.0 | 0.0 | 0.00 | 0.13 | 0.13 | 95 | 1010.9 |
| 20260906032048 | 22 | 168 | 0.0 | 0.0 | 0.00 | 0.13 | 0.13 | 95 | 1011.0 |
| 20260906031543 | 22 | 168 | 0.0 | 0.0 | 0.00 | 0.13 | 0.13 | 95 | 1010.8 |
| 20260906031039 | 22 | 168 | 0.0 | 0.0 | 0.00 | 0.13 | 0.13 | 95 | 1010.7 |
| 20260906030538 | 22 | 168 | 0.0 | 0.0 | 0.00 | 0.13 | 0.13 | 95 | 1010.8 |
| 20260906030037 | 22 | 168 | 0.0 | 0.0 | 0.00 | 0.13 | 0.13 | 95 | 1010.8 |
| 20260906025532 | 22 | 168 | 0.0 | 0.0 | 0.00 | 0.13 | 0.13 | 95 | 1010.7 |
| 20260906025030 | 22 | 168 | 0.0 | 0.0 | 0.00 | 0.13 | 0.13 | 95 | 1010.8 |
| 20260906024526 | 23 | 168 | 0.0 | 0.0 | 0.00 | 0.13 | 0.13 | 95 | 1010.9 |
| 20260906024026 | 23 | 168 | 0.0 | 0.0 | 0.00 | 0.13 | 0.13 | 95 | 1010.8 |
| 20260906023522 | 23 | 168 | 0.0 | 0.0 | 0.00 | 0.13 | 0.13 | 95 | 1011.0 |
| 20260906023017 | 23 | 168 | 0.0 | 0.0 | 0.00 | 0.13 | 0.13 | 95 | 1010.9 |
| 20260906022512 | 23 | 167 | 0.0 | 0.0 | 0.00 | 0.13 | 0.13 | 95 | 1010.9 |
| 20260906022007 | 23 | 167 | 0.0 | 0.0 | 0.00 | 0.13 | 0.13 | 95 | 1010.8 |
| 20260906021502 | 23 | 166 | 0.0 | 0.0 | 0.00 | 0.13 | 0.13 | 95 | 1010.7 |
| 20260906020956 | 23 | 166 | 0.0 | 0.0 | 0.00 | 0.13 | 0.13 | 95 | 1010.5 |
| 20260906020450 | 23 | 167 | 0.0 | 0.0 | 0.00 | 0.13 | 0.13 | 95 | 1010.4 |
| 20260906015950 | 23 | 166 | 0.0 | 0.0 | 0.00 | 0.13 | 0.13 | 95 | 1010.6 |
| 20260906015450 | 23 | 165 | 1.6 | 1.6 | 0.00 | 0.13 | 0.13 | 95 | 1010.5 |
| 20260906014949 | 23 | 176 | 0.0 | 0.0 | 0.00 | 0.13 | 0.13 | 95 | 1010.5 |
| 20260906014449 | 23 | 176 | 0.0 | 0.0 | 0.00 | 0.13 | 0.13 | 95 | 1010.7 |
| 20260906013945 | 23 | 176 | 0.0 | 0.0 | 0.00 | 0.13 | 0.13 | 95 | 1010.3 |
| 20260906013440 | 23 | 176 | 0.0 | 0.0 | 0.00 | 0.13 | 0.13 | 95 | 1010.3 |
| 20260906012936 | 23 | 176 | 0.0 | 0.0 | 0.00 | 0.13 | 0.13 | 95 | 1010.6 |
| 20260906012431 | 23 | 176 | 0.0 | 0.0 | 0.00 | 0.13 | 0.13 | 95 | 1010.3 |
| 20260906011930 | 23 | 176 | 0.0 | 0.0 | 0.00 | 0.13 | 0.13 | 95 | 1010.4 |
| 20260906011426 | 23 | 176 | 0.0 | 0.0 | 0.00 | 0.13 | 0.13 | 95 | 1010.3 |
| 20260906010921 | 23 | 176 | 0.0 | 0.0 | 0.00 | 0.13 | 0.13 | 95 | 1010.6 |
| 20260906010417 | 23 | 176 | 0.0 | 0.0 | 0.00 | 0.13 | 0.13 | 95 | 1009.9 |
| 20260906005913 | 23 | 176 | 0.0 | 0.0 | 0.00 | 0.13 | 0.13 | 95 | 1010.5 |
| 20260906005412 | 23 | 176 | 0.0 | 0.0 | 0.00 | 0.13 | 0.13 | 95 | 1010.3 |
| 20260906004910 | 23 | 176 | 0.0 | 0.0 | 0.00 | 0.13 | 0.13 | 95 | 1010.3 |
| 20260906004405 | 23 | 176 | 0.0 | 0.0 | 0.00 | 0.13 | 0.13 | 95 | 1010.0 |
| 20260906003900 | 23 | 176 | 0.0 | 0.0 | 0.00 | 0.13 | 0.13 | 95 | 1010.0 |
| 20260906003356 | 24 | 176 | 0.0 | 0.0 | 0.00 | 0.13 | 0.13 | 95 | 1010.3 |
| 20260906002851 | 24 | 176 | 0.0 | 0.0 | 0.00 | 0.13 | 0.13 | 95 | 1009.9 |
| 20260906002350 | 24 | 176 | 0.0 | 0.0 | 0.00 | 0.13 | 0.13 | 95 | 1010.0 |
| 20260906001846 | 24 | 176 | 0.0 | 0.0 | 0.00 | 0.13 | 0.13 | 95 | 1009.7 |
| 20260906001342 | 24 | 170 | 0.0 | 0.0 | 0.00 | 0.13 | 0.13 | 95 | 1009.9 |
| 20260906000837 | 24 | 170 | 0.0 | 0.0 | 0.00 | 0.13 | 0.13 | 95 | 1009.8 |
| 20260906000337 | 24 | 170 | 0.0 | 0.0 | 0.00 | 0.13 | 0.13 | 95 | 1009.7 |
| 20260905235836 | 24 | 170 | 0.0 | 0.0 | 0.00 | 0.13 | 0.13 | 95 | 1009.8 |
| 20260905235331 | 24 | 170 | 0.0 | 0.0 | 0.00 | 0.13 | 0.13 | 95 | 1009.5 |
| 20260905234827 | 24 | 170 | 0.0 | 0.0 | 0.00 | 0.13 | 0.13 | 95 | 1009.5 |
| 20260905234322 | 24 | 170 | 0.0 | 0.0 | 0.00 | 0.13 | 0.13 | 95 | 1009.7 |
| 20260905233817 | 24 | 170 | 0.0 | 0.0 | 0.00 | 0.13 | 0.13 | 94 | 1009.6 |
| 20260905233312 | 25 | 169 | 0.0 | 0.0 | 0.00 | 0.13 | 0.13 | 94 | 1009.6 |
| 20260905232811 | 25 | 178 | 0.0 | 0.0 | 0.00 | 0.13 | 0.13 | 94 | 1009.3 |
| 20260905232307 | 25 | 197 | 0.0 | 0.0 | 0.00 | 0.13 | 0.13 | 94 | 1009.1 |
| 20260905231803 | 25 | 197 | 0.0 | 0.0 | 0.00 | 0.13 | 0.13 | 94 | 1009.3 |
| 20260905231257 | 25 | 197 | 0.0 | 0.0 | 0.00 | 0.13 | 0.13 | 93 | 1009.4 |
| 20260905230754 | 25 | 197 | 0.0 | 0.0 | 0.00 | 0.13 | 0.13 | 94 | 1009.1 |
| 20260905230252 | 25 | 197 | 0.0 | 0.0 | 0.00 | 0.13 | 0.13 | 94 | 1008.8 |
| 20260905225751 | 25 | 249 | 1.6 | 3.2 | 0.00 | 0.13 | 0.13 | 95 | 1008.6 |
| 20260905225247 | 25 | 178 | 0.0 | 0.0 | 0.00 | 0.13 | 0.13 | 95 | 1008.3 |
| 20260905224746 | 25 | 178 | 0.0 | 0.0 | 0.00 | 0.13 | 0.13 | 95 | 1008.6 |
| 20260905224242 | 25 | 178 | 0.0 | 0.0 | 0.00 | 0.13 | 0.13 | 95 | 1008.3 |
| 20260905223737 | 25 | 178 | 0.0 | 0.0 | 0.00 | 0.13 | 0.13 | 95 | 1008.2 |
| 20260905223234 | 25 | 179 | 0.0 | 0.0 | 0.00 | 0.13 | 0.13 | 95 | 1008.6 |
| 20260905222729 | 25 | 175 | 0.0 | 0.0 | 0.00 | 0.13 | 0.13 | 95 | 1008.7 |
| 20260905222228 | 25 | 209 | 0.0 | 0.0 | 0.00 | 0.13 | 0.13 | 94 | 1008.8 |
| 20260905221724 | 25 | 211 | 1.6 | 1.6 | 0.00 | 0.13 | 0.13 | 95 | 1009.0 |
| 20260905221221 | 24 | 229 | 1.6 | 1.6 | 0.00 | 0.13 | 0.13 | 95 | 1009.1 |
| 20260905220717 | 24 | 211 | 0.0 | 0.0 | 0.00 | 0.13 | 0.13 | 95 | 1009.2 |
| 20260905220213 | 24 | 211 | 0.0 | 0.0 | 0.00 | 0.13 | 0.13 | 95 | 1009.2 |
| 20260905215712 | 24 | 211 | 0.0 | 0.0 | 0.00 | 0.13 | 0.13 | 95 | 1009.2 |
| 20260905215208 | 23 | 210 | 0.0 | 0.0 | 0.00 | 0.13 | 0.13 | 95 | 1009.2 |
| 20260905214703 | 23 | 210 | 0.0 | 0.0 | 0.00 | 0.13 | 0.13 | 94 | 1008.9 |
| 20260905214159 | 23 | 210 | 0.0 | 0.0 | 0.00 | 0.13 | 0.13 | 94 | 1008.9 |
| 20260905213654 | 23 | 212 | 0.0 | 0.0 | 0.00 | 0.13 | 0.13 | 94 | 1008.9 |
| 20260905213150 | 24 | 207 | 1.6 | 1.6 | 0.00 | 0.13 | 0.13 | 93 | 1008.9 |
| 20260905212645 | 24 | 185 | 0.0 | 0.0 | 0.00 | 0.13 | 0.13 | 92 | 1008.7 |
| 20260905212144 | 24 | 184 | 0.0 | 0.0 | 0.13 | 0.13 | 0.13 | 91 | 1008.7 |
| 20260905211639 | 25 | 185 | 0.0 | 0.0 | 0.13 | 0.13 | 0.13 | 90 | 1008.9 |
| 20260905211134 | 25 | 184 | 0.0 | 0.0 | 0.18 | 0.10 | 0.10 | 87 | 1008.9 |
| 20260905210631 | 25 | 184 | 0.0 | 0.0 | 0.48 | 0.10 | 0.10 | 84 | 1009.0 |
| 20260905210125 | 25 | 182 | 0.0 | 0.0 | 0.30 | 0.05 | 0.05 | 81 | 1009.1 |
| 20260905205624 | 26 | 154 | 1.6 | 1.6 | 0.13 | 0.03 | 0.03 | 79 | 1009.0 |
| 20260905205124 | 27 | 156 | 1.6 | 3.2 | 0.00 | 0.00 | 0.00 | 73 | 1009.1 |
| 20260905204624 | 27 | 173 | 0.0 | 1.6 | 0.00 | 0.00 | 0.00 | 72 | 1009.0 |
| 20260905204119 | 27 | 186 | 0.0 | 0.0 | 0.00 | 0.00 | 0.00 | 72 | 1008.7 |
| 20260905203619 | 27 | 189 | 0.0 | 0.0 | 0.00 | 0.00 | 0.00 | 72 | 1008.9 |
| 20260905203114 | 27 | 111 | 1.6 | 3.2 | 0.00 | 0.00 | 0.00 | 72 | 1008.9 |
| 20260905202610 | 27 | 133 | 3.2 | 3.2 | 0.00 | 0.00 | 0.00 | 71 | 1008.7 |
| 20260905202105 | 27 | 107 | 9.7 | 14.5 | 0.00 | 0.00 | 0.00 | 71 | 1008.6 |
| 20260905201601 | 28 | 97 | 4.8 | 4.8 | 0.00 | 0.00 | 0.00 | 71 | 1009.0 |
| 20260905201100 | 28 | 101 | 3.2 | 3.2 | 0.00 | 0.00 | 0.00 | 70 | 1009.3 |
| 20260905200556 | 28 | 328 | 4.8 | 9.7 | 0.00 | 0.00 | 0.00 | 69 | 1009.0 |
| 20260905200050 | 28 | 308 | 11.3 | 16.1 | 0.00 | 0.00 | 0.00 | 68 | 1008.8 |
| 20260905195544 | 30 | 339 | 3.2 | 3.2 | 0.00 | 0.00 | 0.00 | 67 | 1008.7 |
| 20260905195040 | 31 | 285 | 8.0 | 9.7 | 0.00 | 0.00 | 0.00 | 64 | 1008.9 |
| 20260905194539 | 33 | 46 | 8.0 | 14.5 | 0.00 | 0.00 | 0.00 | 57 | 1008.6 |
| 20260905194038 | 35 | 323 | 6.4 | 8.0 | 0.00 | 0.00 | 0.00 | 51 | 1008.5 |
| 20260905193533 | 35 | 126 | 1.6 | 1.6 | 0.00 | 0.00 | 0.00 | 51 | 1008.4 |
| 20260905193029 | 35 | 223 | 3.2 | 4.8 | 0.00 | 0.00 | 0.00 | 48 | 1008.2 |
| 20260905192524 | 35 | 151 | 0.0 | 1.6 | 0.00 | 0.00 | 0.00 | 46 | 1008.3 |
| 20260905192020 | 35 | 201 | 1.6 | 3.2 | 0.00 | 0.00 | 0.00 | 47 | 1008.2 |
| 20260905191519 | 35 | 236 | 1.6 | 3.2 | 0.00 | 0.00 | 0.00 | 47 | 1008.1 |
| 20260905191018 | 35 | 288 | 4.8 | 8.0 | 0.00 | 0.00 | 0.00 | 45 | 1007.9 |
| 20260905190516 | 35 | 320 | 1.6 | 3.2 | 0.00 | 0.00 | 0.00 | 45 | 1008.2 |
| 20260905190010 | 36 | 305 | 1.6 | 3.2 | 0.00 | 0.00 | 0.00 | 46 | 1008.2 |
| 20260905185504 | 36 | 203 | 0.0 | 0.0 | 0.00 | 0.00 | 0.00 | 46 | 1008.2 |
| 20260905185003 | 36 | 101 | 1.6 | 3.2 | 0.00 | 0.00 | 0.00 | 44 | 1008.2 |
| 20260905184458 | 36 | 0 | 6.4 | 9.7 | 0.00 | 0.00 | 0.00 | 45 | 1008.2 |
| 20260905183957 | 36 | 69 | 1.6 | 3.2 | 0.00 | 0.00 | 0.00 | 45 | 1008.1 |
| 20260905183457 | 36 | 345 | 4.8 | 8.0 | 0.00 | 0.00 | 0.00 | 44 | 1008.3 |
| 20260905182951 | 36 | 235 | 1.6 | 3.2 | 0.00 | 0.00 | 0.00 | 47 | 1008.4 |
| 20260905182451 | 36 | 314 | 4.8 | 4.8 | 0.00 | 0.00 | 0.00 | 47 | 1008.6 |
| 20260905181946 | 36 | 74 | 1.6 | 1.6 | 0.00 | 0.00 | 0.00 | 46 | 1009.0 |
| 20260905181441 | 35 | 206 | 0.0 | 1.6 | 0.00 | 0.00 | 0.00 | 50 | 1008.8 |
| 20260905180940 | 35 | 212 | 0.0 | 1.6 | 0.00 | 0.00 | 0.00 | 49 | 1009.1 |
| 20260905180435 | 35 | 230 | 3.2 | 4.8 | 0.00 | 0.00 | 0.00 | 49 | 1008.9 |
| 20260905175930 | 35 | 63 | 4.8 | 4.8 | 0.00 | 0.00 | 0.00 | 47 | 1009.1 |
| 20260905175429 | 35 | 355 | 4.8 | 8.0 | 0.00 | 0.00 | 0.00 | 46 | 1009.3 |
| 20260905174925 | 36 | 339 | 6.4 | 9.7 | 0.00 | 0.00 | 0.00 | 49 | 1009.6 |
| 20260905174420 | 36 | 99 | 1.6 | 3.2 | 0.00 | 0.00 | 0.00 | 49 | 1009.7 |
| 20260905173916 | 35 | 220 | 1.6 | 3.2 | 0.00 | 0.00 | 0.00 | 51 | 1009.7 |
| 20260905173413 | 35 | 270 | 3.2 | 3.2 | 0.00 | 0.00 | 0.00 | 51 | 1010.0 |
| 20260905172913 | 35 | 241 | 4.8 | 4.8 | 0.00 | 0.00 | 0.00 | 53 | 1009.9 |
| 20260905172410 | 35 | 349 | 3.2 | 3.2 | 0.00 | 0.00 | 0.00 | 54 | 1010.1 |
| 20260905171907 | 35 | 17 | 1.6 | 3.2 | 0.00 | 0.00 | 0.00 | 53 | 1010.2 |
| 20260905171403 | 35 | 197 | 3.2 | 3.2 | 0.00 | 0.00 | 0.00 | 53 | 1010.3 |
| 20260905170859 | 35 | 193 | 1.6 | 1.6 | 0.00 | 0.00 | 0.00 | 53 | 1010.2 |
| 20260905170355 | 34 | 359 | 4.8 | 4.8 | 0.00 | 0.00 | 0.00 | 55 | 1010.4 |
| 20260905165854 | 35 | 242 | 4.8 | 8.0 | 0.00 | 0.00 | 0.00 | 56 | 1010.4 |
| 20260905165349 | 34 | 328 | 4.8 | 8.0 | 0.00 | 0.00 | 0.00 | 55 | 1010.4 |
| 20260905164844 | 35 | 348 | 4.8 | 8.0 | 0.00 | 0.00 | 0.00 | 55 | 1010.6 |
| 20260905164339 | 34 | 220 | 1.6 | 3.2 | 0.00 | 0.00 | 0.00 | 56 | 1010.6 |
| 20260905163835 | 34 | 304 | 4.8 | 4.8 | 0.00 | 0.00 | 0.00 | 58 | 1010.7 |
| 20260905163331 | 33 | 5 | 1.6 | 1.6 | 0.00 | 0.00 | 0.00 | 57 | 1010.8 |
| 20260905162827 | 34 | 241 | 3.2 | 3.2 | 0.00 | 0.00 | 0.00 | 59 | 1010.7 |
| 20260905162326 | 34 | 322 | 3.2 | 4.8 | 0.00 | 0.00 | 0.00 | 57 | 1011.0 |
| 20260905161821 | 33 | 307 | 6.4 | 8.0 | 0.00 | 0.00 | 0.00 | 56 | 1011.0 |
| 20260905161320 | 33 | 211 | 0.0 | 0.0 | 0.00 | 0.00 | 0.00 | 60 | 1010.8 |
| 20260905160818 | 33 | 207 | 1.6 | 1.6 | 0.00 | 0.00 | 0.00 | 61 | 1011.0 |
| 20260905160313 | 33 | 197 | 0.0 | 1.6 | 0.00 | 0.00 | 0.00 | 61 | 1011.3 |
| 20260905155808 | 33 | 1 | 4.8 | 4.8 | 0.00 | 0.00 | 0.00 | 61 | 1011.2 |
| 20260905155307 | 33 | 15 | 4.8 | 4.8 | 0.00 | 0.00 | 0.00 | 62 | 1011.3 |
| 20260905154801 | 33 | 240 | 3.2 | 3.2 | 0.00 | 0.00 | 0.00 | 63 | 1011.3 |
| 20260905154257 | 33 | 289 | 1.6 | 3.2 | 0.00 | 0.00 | 0.00 | 63 | 1011.6 |
| 20260905153752 | 32 | 242 | 3.2 | 4.8 | 0.00 | 0.00 | 0.00 | 65 | 1011.6 |
| 20260905153248 | 32 | 221 | 1.6 | 1.6 | 0.00 | 0.00 | 0.00 | 64 | 1011.5 |
| 20260905152743 | 32 | 346 | 4.8 | 8.0 | 0.00 | 0.00 | 0.00 | 65 | 1011.6 |
| 20260905152242 | 32 | 0 | 6.4 | 8.0 | 0.00 | 0.00 | 0.00 | 64 | 1011.6 |
| 20260905151742 | 32 | 274 | 1.6 | 3.2 | 0.00 | 0.00 | 0.00 | 64 | 1011.7 |
| 20260905151238 | 32 | 208 | 3.2 | 4.8 | 0.00 | 0.00 | 0.00 | 66 | 1011.7 |
| 20260905150738 | 32 | 308 | 3.2 | 3.2 | 0.00 | 0.00 | 0.00 | 70 | 1011.6 |
| 20260905150237 | 31 | 232 | 3.2 | 3.2 | 0.00 | 0.00 | 0.00 | 69 | 1011.7 |
| 20260905145735 | 31 | 225 | 4.8 | 4.8 | 0.00 | 0.00 | 0.00 | 70 | 1011.9 |
| 20260905145231 | 31 | 351 | 6.4 | 8.0 | 0.00 | 0.00 | 0.00 | 70 | 1011.6 |
| 20260905144729 | 31 | 356 | 4.8 | 8.0 | 0.00 | 0.00 | 0.00 | 71 | 1011.6 |
| 20260905144225 | 31 | 339 | 4.8 | 4.8 | 0.00 | 0.00 | 0.00 | 71 | 1011.7 |
| 20260905143723 | 30 | 211 | 3.2 | 4.8 | 0.00 | 0.00 | 0.00 | 72 | 1011.7 |
| 20260905143223 | 30 | 318 | 6.4 | 8.0 | 0.00 | 0.00 | 0.00 | 71 | 1011.7 |
| 20260905142721 | 30 | 226 | 1.6 | 3.2 | 0.00 | 0.00 | 0.00 | 72 | 1011.6 |
| 20260905142216 | 30 | 202 | 1.6 | 1.6 | 0.00 | 0.00 | 0.00 | 74 | 1011.8 |
| 20260905141712 | 30 | 334 | 3.2 | 4.8 | 0.00 | 0.00 | 0.00 | 74 | 1011.7 |
| 20260905141208 | 30 | 234 | 3.2 | 3.2 | 0.00 | 0.00 | 0.00 | 75 | 1011.7 |
| 20260905140703 | 30 | 214 | 1.6 | 1.6 | 0.00 | 0.00 | 0.00 | 75 | 1011.5 |
| 20260905140157 | 30 | 289 | 1.6 | 3.2 | 0.00 | 0.00 | 0.00 | 76 | 1011.7 |
| 20260905135652 | 29 | 70 | 3.2 | 3.2 | 0.00 | 0.00 | 0.00 | 76 | 1011.4 |
| 20260905135148 | 29 | 321 | 3.2 | 3.2 | 0.00 | 0.00 | 0.00 | 77 | 1011.6 |
| 20260905134647 | 28 | 334 | 6.4 | 8.0 | 0.00 | 0.00 | 0.00 | 78 | 1011.1 |
| 20260905134146 | 28 | 300 | 3.2 | 3.2 | 0.00 | 0.00 | 0.00 | 79 | 1011.5 |
| 20260905133642 | 28 | 244 | 4.8 | 8.0 | 0.00 | 0.00 | 0.00 | 79 | 1011.4 |
| 20260905133142 | 28 | 203 | 1.6 | 1.6 | 0.00 | 0.00 | 0.00 | 80 | 1011.5 |
| 20260905132641 | 28 | 200 | 1.6 | 3.2 | 0.00 | 0.00 | 0.00 | 81 | 1011.7 |
| 20260905132136 | 27 | 211 | 1.6 | 3.2 | 0.00 | 0.00 | 0.00 | 82 | 1011.4 |
| 20260905131631 | 27 | 214 | 1.6 | 3.2 | 0.00 | 0.00 | 0.00 | 83 | 1011.5 |
| 20260905131126 | 27 | 199 | 0.0 | 1.6 | 0.00 | 0.00 | 0.00 | 84 | 1011.8 |
| 20260905130621 | 27 | 202 | 3.2 | 3.2 | 0.00 | 0.00 | 0.00 | 84 | 1011.7 |
| 20260905130120 | 27 | 333 | 4.8 | 4.8 | 0.00 | 0.00 | 0.00 | 85 | 1011.7 |
| 20260905125615 | 27 | 230 | 1.6 | 3.2 | 0.00 | 0.00 | 0.00 | 85 | 1011.9 |
| 20260905125111 | 26 | 231 | 4.8 | 4.8 | 0.00 | 0.00 | 0.00 | 86 | 1011.7 |
| 20260905124607 | 26 | 231 | 3.2 | 3.2 | 0.00 | 0.00 | 0.00 | 86 | 1011.6 |
| 20260905124103 | 26 | 218 | 1.6 | 1.6 | 0.00 | 0.00 | 0.00 | 87 | 1011.8 |
| 20260905123558 | 26 | 258 | 3.2 | 3.2 | 0.00 | 0.00 | 0.00 | 87 | 1011.8 |
| 20260905123055 | 26 | 203 | 1.6 | 3.2 | 0.00 | 0.00 | 0.00 | 88 | 1011.8 |
| 20260905122554 | 26 | 358 | 4.8 | 4.8 | 0.00 | 0.00 | 0.00 | 89 | 1011.8 |
| 20260905122049 | 25 | 201 | 0.0 | 1.6 | 0.00 | 0.00 | 0.00 | 90 | 1011.9 |
| 20260905121544 | 25 | 212 | 1.6 | 1.6 | 0.00 | 0.00 | 0.00 | 91 | 1011.6 |
| 20260905121039 | 25 | 279 | 3.2 | 4.8 | 0.00 | 0.00 | 0.00 | 92 | 1011.6 |
| 20260905120538 | 25 | 321 | 6.4 | 8.0 | 0.00 | 0.00 | 0.00 | 93 | 1011.8 |
| 20260905120034 | 24 | 214 | 0.0 | 1.6 | 0.00 | 0.00 | 0.00 | 94 | 1011.6 |
| 20260905115532 | 24 | 207 | 0.0 | 1.6 | 0.00 | 0.00 | 0.00 | 95 | 1011.7 |
| 20260905115027 | 24 | 204 | 0.0 | 0.0 | 0.00 | 0.00 | 0.00 | 95 | 1011.5 |
| 20260905114527 | 23 | 213 | 0.0 | 0.0 | 0.00 | 0.00 | 0.00 | 95 | 1011.5 |
| 20260905114026 | 23 | 213 | 0.0 | 0.0 | 0.00 | 0.00 | 0.00 | 95 | 1011.4 |